Home   Weather   Knittelfeld   Past weeks

Flag for Austria Past Weather in Knittelfeld, Styria, Austria — Yesterday and Last 2 Weeks

Now
28 °F

Passing clouds.


Feels Like: 28 °F
Forecast: 21 / 35 °F
Wind: 2 mph from Northeast

Location: Zeltweg

Current Time: Dec 3, 2016 at 8:49:03 pm

Latest Report: Dec 3, 2016 at 7:50 pm


Visibility: 9 mi

Pressure: 30.24 "Hg (27.89 "Hg at 641m altitude)

Humidity: 93%

Dew Point: 27 °F

Location of KnittelfeldLocation

Past Weather in Knittelfeld — Graph

°F

Knittelfeld Temperature Yesterday

Maximum temperature yesterday: 46 °F (at 4:50 am)
Minimum temperature yesterday: 37 °F (at 8:50 pm)
Average temperature yesterday: 44 °F

High & Low Weather Summary for the Past Weeks

 TemperatureHumidityPressure
High61 °F (Nov 22, 11:50 am)100% (Nov 19, 4:50 am)30.48 "Hg (Nov 19, 4:50 am)
Low16 °F (Nov 30, 4:50 am)21% (Dec 2, 5:50 am)29.80 "Hg (Nov 19, 1:50 pm)
Average41 °F72%30.07 "Hg
* Reported Nov 18 7:50 pm — Dec 3 7:50 pm, Knittelfeld, Weather by CustomWeather, © 2016

Note: Actual official high and low records may vary slightly from our data, if they occured in-between our weather recording intervals... More about our weather records

Advertising

Knittelfeld Weather History for the Previous 24 Hours

Scroll right to see more
 ConditionsComfort  
Time TempWeatherWind HumidityBarometerVisibility
7:50 pm
Sat, Dec 3
28 °FPassing clouds.2 mph93%30.24 "Hg9 mi
6:50 pm28 °FPassing clouds.1 mph86%30.24 "Hg9 mi
5:50 pm28 °FPassing clouds.2 mph86%30.21 "Hg12 mi
4:50 pm32 °FPassing clouds.1 mph75%30.21 "Hg12 mi
3:50 pm37 °FPartly sunny.6 mph65%30.18 "Hg19 mi
2:50 pm39 °FPartly sunny.6 mph61%30.18 "Hg19 mi
1:50 pm39 °FPassing clouds.3 mph61%30.15 "Hg19 mi
12:50 pm37 °FPassing clouds.2 mph65%30.18 "Hg19 mi
11:50 am36 °FPassing clouds.1 mph70%30.18 "Hg19 mi
10:50 am32 °FPassing clouds.1 mph80%30.21 "Hg12 mi
9:50 am30 °FPassing clouds.2 mph80%30.21 "Hg12 mi
8:50 am27 °FPassing clouds.1 mph86%30.18 "Hg12 mi
7:50 am23 °FPassing clouds.1 mph86%30.18 "Hg12 mi
6:50 am23 °FPassing clouds.No wind86%30.15 "Hg12 mi
5:50 am27 °FPassing clouds.No wind86%30.15 "Hg12 mi
4:50 am27 °FClear.No wind86%30.12 "Hg12 mi
8:50 pm
Fri, Dec 2
37 °FPassing clouds.5 mph70%30.07 "Hg12 mi
Weather by CustomWeather, © 2016

See weather overviewHow to use our weather pages